Tracking 17630 objects as of 25-May-2016
HD Live streaming from Space Station
objects crossing your sky now

SL-12 R/B(AUX MOTOR)

Track SL-12 R/B(AUX MOTOR) now!


NORAD ID: 25053
Int'l Code: 1997-070E
Perigee: 955.8 km
Apogee: 33,206.7 km
Inclination: 45.5 °
Period: 595.7 minutes
Semi major axis: 23452 km
RCS: 0.8237 m2 (medium)
Launch date: November 12, 1997
Source: Commonwealth of Independent States (former USSR) (CIS)
Launch site: TYURATAM MISSILE AND SPACE COMPLEX (TTMTR)

Note: This is a ROCKET BODY
Your satellite tracking list
Your tracking list is empty





NASA's NSSDC Master Catalog

Two Line Element Set (TLE):
1 25053U 97070E   16144.23831218 -.00000010  00000-0 -39790-2 0  9995
2 25053  45.5487 242.2637 6875875  55.6201 351.3887  2.41727751162988
Source of the keplerian elements: AFSPC

N2YO: 519